Regional Weather Roundup
Issued by NWS

Home | Current Version | Previous Version | Text Only | Print | Product List | Glossary On
Versions: 1 2 3 4 5 6 7 8 9 10 11 12 13 14 15 16 17 18 19 20 21 22 23 24 25 26 27 28 29 30 31 32 33 34 35 36 37 38 39 40 41 42 43 44 45 46 47 48 49 50
000
ASPQ40 PGUM 271910
RWRPQ
WEATHER ROUNDUP FOR THE MARIANAS AND MICRONESIA
NATIONAL WEATHER SERVICE TIYAN GU
500 AM CHST FRI AUG 28 2015

GUZ001>004-272000-
MARIANA ISLANDS-

CITY           SKY/WX    TMP DP  RH WIND       PRES   REMARKS
GUAM AIRPORT   PTCLDY    77  75  94 CALM      29.78S
ANDERSEN AFB   CLEAR     75  73  94 W3        29.78S
ROTA AIRPORT   NOT AVBL
TINIAN AP      NOT AVBL
SAIPAN AP      CLEAR     79  75  89 CALM      29.76R

$$

PMZ161-272000-
REPUBLIC OF PALAU-

CITY           SKY/WX    TMP DP  RH WIND       PRES   REMARKS
KOROR AP       MOCLDY    75  75 100 CALM      29.82F
KOROR WSO      MOCLDY    79  75  89 SW3       29.81F

$$

PMZ171>174-272000-
FEDERATED STATES OF MICRONESIA-

CITY           SKY/WX    TMP DP  RH WIND       PRES   REMARKS
YAP AIRPORT    MOCLDY    81  77  89 VRB3      29.79R
CHUUK AP       LGT RAIN  79  77  94 SW8       29.81R
POHNPEI AP     NOT AVBL
POHNPEI WSO    CLOUDY    79  77  94 W9        29.80R
KOSRAE AP      NOT AVBL

$$

PMZ181-272000-
REPUBLIC OF THE MARSHALL ISLANDS-

CITY           SKY/WX    TMP DP  RH WIND       PRES   REMARKS
KWAJALEIN AP   CLEAR     81  73  78 CALM      29.79R
MAJURO AP      NOT AVBL
MAJURO WSO     MOCLDY    82  77  83 W7        29.79R HX  91

$$




USA.gov is the U.S. government's official web portal to all federal, state and local government web resources and services.